SCP
0 0 1 1 1 1 1 0 0 0 0 0 0 0 0 1 1 1 0 0 0 0 0 0 0 0 0 0 0 0 0 0
0 0 0 0 0 1 1 1 1 0 0 0 0 0 0 0 1 1 1 0 0 0 0 0 0 0 0 0 0 0 0 0
0 0 0 0 0 0 0 0 0 1 1 1 0 0 0 0 0 0 1 1 1 0 0 0 0 0 0 0 0 0 0 0
0 0 0 0 0 0 0 0 0 0 0 1 1 0 0 1 0 0 0 1 1 1 0 0 0 0 0 0 0 0 0 0
0 0 0 0 0 0 0 0 0 0 0 0 0 1 1 0 1 0 0 1 1 1 1 0 0 0 0 0 0 0 0 0
0 0 -0 -0 -0 -0 -0 -0 -0 0 0 0 0 0 1 1 1 1 1 1 1 1 1 0 0 0 0 0 0 0 0 0
0 -0 -0 -0 -0 -0 -0 -0 -0 0 -0 0 0 0 0 1 1 1 1 1 1 1 1 0 0 0 0 0 0 0 0 0
-0 -0 -0 -0 -0 0 0 0 0 0 0 -0 0 0 0 0 1 1 1 1 1 1 1 0 0 0 0 0 0 0 0 0
-0 -0 -0 -0 -0 0 0 0 0 0 0 0 0 0 0 0 0 1 1 1 1 1 1 0 0 0 0 0 0 0 0 0
-0 -0 -0 -0 -0 -0 0 0 0 -0 0 0 0 0 0 0 0 0 1 1 1 1 1 1 0 0 0 0 0 0 0 0
-0 -0 0 0 0 0 -0 -0 -0 -0 -0 -0 0 0 0 0 0 0 0 1 1 1 1 1 1 0 0 0 0 0 0 0
-0 0 0 0 -0 -0 -0 -0 -0 -0 -0 -0 -0 -0 0 0 0 0 0 0 1 1 1 1 1 1 1 0 0 0 0 0
-0 -0 0 0 -0 -0 0 0 0 -0 0 0 -0 0 0 0 0 0 0 0 0 1 1 2 1 1 0 0 0 0 0 0
0 0 0 -0 -0 0 -0 -0 -0 0 0 0 0 0 0 0 0 0 0 0 0 1 1 2 2 1 1 1 0 0 0 0
0 0 0 0 0 0 0 0 0 -0 0 0 0 0 0 0 0 0 0 0 0 0 2 1 2 1 1 1 1 1 0 0
0 0 0 0 0 0 0 -0 0 0 0 0 0 0 0 0 0 0 0 0 0 0 1 2 2 2 1 1 0 0 0 0
0 0 0 0 0 0 0 0 0 0 0 0 0 0 0 0 0 0 0 0 0 0 0 1 2 2 2 2 0 0 0 0
0 0 0 0 0 0 0 0 0 0 0 0 0 0 0 0 0 0 0 0 0 0 0 1 1 1 2 2 2 1 0 0
0 0 0 0 0 0 0 0 0 0 0 0 0 0 0 0 0 0 0 0 0 0 0 0 1 1 1 2 2 1 1 0
0 0 0 0 0 0 0 0 0 0 0 0 0 0 0 0 0 0 0 0 0 0 0 0 1 0 0 0 2 1 1 0
Wind_Speed_500mb
16 17 17 18 12 9 17 23 27 27 23 21 19 19 20 22 23 23 23 22 19 19 19 20 19 21 25 27 29 30 28 22
13 12 10 13 11 8 10 13 17 24 31 31 28 24 24 26 28 28 28 26 23 22 23 23 23 25 27 29 30 32 35 28
28 21 18 11 11 13 13 12 12 11 15 23 33 34 31 30 32 33 33 31 28 26 26 26 26 29 29 29 27 34 36 37
24 20 20 21 24 23 23 29 27 24 22 22 24 32 38 39 36 36 37 38 34 31 31 31 32 34 32 33 33 35 38 37
20 27 33 31 30 32 30 31 33 36 35 34 32 33 34 43 45 42 42 43 42 39 39 39 37 37 37 38 36 39 37 37
26 30 39 46 48 49 49 50 47 42 38 40 44 43 39 39 48 50 49 47 49 47 45 43 41 39 41 43 43 42 40 39
30 40 46 50 53 53 53 54 54 54 52 46 46 48 54 47 46 50 54 54 51 49 47 46 45 43 46 48 48 49 45 43
40 44 44 44 48 50 51 52 53 55 57 59 54 54 55 60 56 55 56 56 60 56 52 45 47 48 50 52 53 52 50 49
40 44 47 48 49 49 51 51 53 56 59 60 61 63 61 61 65 62 63 63 61 63 59 56 51 53 52 56 57 55 54 52
41 45 48 51 55 58 56 57 63 66 65 64 62 64 68 68 70 72 67 66 68 66 65 62 57 57 54 55 59 58 56 56
40 46 52 55 54 58 64 64 66 69 76 76 69 63 64 74 74 76 71 66 72 75 72 68 63 56 55 51 57 60 57 61
45 53 59 62 63 68 69 72 77 83 82 80 79 75 65 69 77 76 75 76 72 77 81 80 74 64 60 59 53 60 61 63
53 55 59 65 68 72 71 74 78 81 78 76 72 72 67 60 69 77 76 79 72 77 79 84 85 76 68 67 64 62 64 65
52 58 62 66 70 73 77 83 86 82 79 73 68 67 65 62 58 68 74 82 81 63 84 88 92 89 83 66 50 65 72 72
53 56 59 62 67 71 74 77 80 83 86 91 81 75 74 70 59 58 69 76 90 80 73 85 94 101 94 65 36 37 60 81
50 54 56 60 63 70 76 80 87 90 94 97 88 82 83 82 68 55 60 71 83 92 77 91 91 102 103 100 73 49 39 38
53 53 53 53 58 66 73 79 81 83 92 95 94 92 91 88 75 66 63 68 74 91 98 85 98 95 112 107 104 81 60 48
53 54 52 52 57 63 70 74 78 82 86 95 97 97 97 93 84 73 68 66 70 76 94 100 97 100 102 103 115 101 91 78
52 54 54 56 59 61 66 68 70 75 79 87 96 98 98 91 89 83 80 72 78 82 88 102 98 106 102 111 120 123 97 91
52 54 58 60 62 61 63 64 67 68 72 75 83 86 94 91 89 86 84 80 86 96 85 100 98 107 97 32 88 113 117 99
Wind_Direction_500mb
67 55 44 41 43 1 335 322 315 308 301 289 276 266 258 249 250 252 252 253 255 254 245 238 231 228 229 226 230 220 208 217
81 49 20 22 21 23 358 336 329 329 322 307 290 269 255 254 255 255 254 253 255 253 247 243 238 234 228 238 239 230 216 218
72 65 54 16 335 320 311 304 311 318 328 323 304 290 271 256 255 258 258 257 256 254 250 244 242 239 236 236 244 239 221 227
49 43 34 25 18 5 328 322 305 305 307 313 311 294 285 271 256 254 257 259 258 254 249 245 240 240 239 238 233 229 227 236
15 358 357 347 340 338 333 337 332 313 305 301 295 300 285 278 270 256 253 255 256 253 249 247 243 240 242 239 236 228 232 234
2 347 336 333 329 323 319 316 314 311 313 303 303 295 286 286 277 270 259 256 258 255 251 250 248 243 243 242 239 230 233 233
343 338 331 327 325 324 320 314 309 305 301 297 297 288 289 275 274 276 268 260 256 254 252 250 249 244 242 244 240 237 234 232
341 331 330 330 327 323 320 318 318 315 308 300 292 288 281 277 277 267 270 270 260 256 253 255 254 246 242 243 245 240 236 234
338 339 336 330 328 324 321 318 314 309 305 304 297 287 279 271 269 267 262 265 267 256 251 252 257 244 240 245 243 239 234 231
340 333 328 324 324 324 324 321 318 315 310 302 295 288 280 274 267 263 265 267 259 257 251 248 254 243 235 244 237 235 232 225
338 334 330 328 326 325 326 325 322 317 314 310 302 294 283 274 267 260 255 262 264 253 250 246 244 243 233 239 237 233 231 227
345 343 337 334 334 331 329 328 326 325 321 314 310 303 295 280 272 262 252 249 258 262 248 245 242 239 236 236 240 235 235 230
351 345 339 337 339 335 330 327 325 325 324 319 315 310 304 293 277 271 256 246 246 253 259 245 241 235 236 235 233 233 233 233
352 346 342 344 343 340 337 336 333 332 329 324 321 316 311 304 287 275 267 253 240 244 248 250 240 234 228 229 222 227 231 228
354 348 344 346 341 337 335 332 331 333 333 325 326 323 318 313 301 282 270 261 247 234 247 243 238 234 229 220 208 216 222 224
355 349 348 345 343 340 339 339 337 334 332 325 326 325 323 318 310 295 275 268 254 243 238 242 237 232 230 228 224 221 204 215
354 352 350 344 342 342 341 339 334 331 331 326 327 324 322 319 311 302 293 277 262 244 237 242 235 228 230 224 220 222 221 212
354 355 350 344 341 341 340 338 332 332 334 328 326 322 323 319 311 300 292 282 274 258 238 237 244 233 227 221 222 216 220 216
357 354 351 346 340 338 339 337 332 333 335 329 325 323 321 316 311 304 293 279 281 276 243 235 237 237 228 224 226 226 219 223
357 354 350 346 342 338 337 338 333 330 332 327 323 321 321 316 306 301 291 279 276 274 253 235 233 232 225 185 215 223 219 223
Wind_Speed_850mb
16 17 17 18 12 9 17 23 27 27 23 21 19 19 20 22 23 23 23 22 19 19 19 20 19 21 25 27 29 30 28 22
13 12 10 13 11 8 10 13 17 24 31 31 28 24 24 26 28 28 28 26 23 22 23 23 23 25 27 29 30 32 35 28
28 21 18 11 11 13 13 12 12 11 15 23 33 34 31 30 32 33 33 31 28 26 26 26 26 29 29 29 27 34 36 37
24 20 20 21 24 23 23 29 27 24 22 22 24 32 38 39 36 36 37 38 34 31 31 31 32 34 32 33 33 35 38 37
20 27 33 31 30 32 30 31 33 36 35 34 32 33 34 43 45 42 42 43 42 39 39 39 37 37 37 38 36 39 37 37
26 30 39 46 48 49 49 50 47 42 38 40 44 43 39 39 48 50 49 47 49 47 45 43 41 39 41 43 43 42 40 39
30 40 46 50 53 53 53 54 54 54 52 46 46 48 54 47 46 50 54 54 51 49 47 46 45 43 46 48 48 49 45 43
40 44 44 44 48 50 51 52 53 55 57 59 54 54 55 60 56 55 56 56 60 56 52 45 47 48 50 52 53 52 50 49
40 44 47 48 49 49 51 51 53 56 59 60 61 63 61 61 65 62 63 63 61 63 59 56 51 53 52 56 57 55 54 52
41 45 48 51 55 58 56 57 63 66 65 64 62 64 68 68 70 72 67 66 68 66 65 62 57 57 54 55 59 58 56 56
40 46 52 55 54 58 64 64 66 69 76 76 69 63 64 74 74 76 71 66 72 75 72 68 63 56 55 51 57 60 57 61
45 53 59 62 63 68 69 72 77 83 82 80 79 75 65 69 77 76 75 76 72 77 81 80 74 64 60 59 53 60 61 63
53 55 59 65 68 72 71 74 78 81 78 76 72 72 67 60 69 77 76 79 72 77 79 84 85 76 68 67 64 62 64 65
52 58 62 66 70 73 77 83 86 82 79 73 68 67 65 62 58 68 74 82 81 63 84 88 92 89 83 66 50 65 72 72
53 56 59 62 67 71 74 77 80 83 86 91 81 75 74 70 59 58 69 76 90 80 73 85 94 101 94 65 36 37 60 81
50 54 56 60 63 70 76 80 87 90 94 97 88 82 83 82 68 55 60 71 83 92 77 91 91 102 103 100 73 49 39 38
53 53 53 53 58 66 73 79 81 83 92 95 94 92 91 88 75 66 63 68 74 91 98 85 98 95 112 107 104 81 60 48
53 54 52 52 57 63 70 74 78 82 86 95 97 97 97 93 84 73 68 66 70 76 94 100 97 100 102 103 115 101 91 78
52 54 54 56 59 61 66 68 70 75 79 87 96 98 98 91 89 83 80 72 78 82 88 102 98 106 102 111 120 123 97 91
52 54 58 60 62 61 63 64 67 68 72 75 83 86 94 91 89 86 84 80 86 96 85 100 98 107 97 32 88 113 117 99
Wind_Direction_850mb
67 55 44 41 43 1 335 322 315 308 301 289 276 266 258 249 250 252 252 253 255 254 245 238 231 228 229 226 230 220 208 217
81 49 20 22 21 23 358 336 329 329 322 307 290 269 255 254 255 255 254 253 255 253 247 243 238 234 228 238 239 230 216 218
72 65 54 16 335 320 311 304 311 318 328 323 304 290 271 256 255 258 258 257 256 254 250 244 242 239 236 236 244 239 221 227
49 43 34 25 18 5 328 322 305 305 307 313 311 294 285 271 256 254 257 259 258 254 249 245 240 240 239 238 233 229 227 236
15 358 357 347 340 338 333 337 332 313 305 301 295 300 285 278 270 256 253 255 256 253 249 247 243 240 242 239 236 228 232 234
2 347 336 333 329 323 319 316 314 311 313 303 303 295 286 286 277 270 259 256 258 255 251 250 248 243 243 242 239 230 233 233
343 338 331 327 325 324 320 314 309 305 301 297 297 288 289 275 274 276 268 260 256 254 252 250 249 244 242 244 240 237 234 232
341 331 330 330 327 323 320 318 318 315 308 300 292 288 281 277 277 267 270 270 260 256 253 255 254 246 242 243 245 240 236 234
338 339 336 330 328 324 321 318 314 309 305 304 297 287 279 271 269 267 262 265 267 256 251 252 257 244 240 245 243 239 234 231
340 333 328 324 324 324 324 321 318 315 310 302 295 288 280 274 267 263 265 267 259 257 251 248 254 243 235 244 237 235 232 225
338 334 330 328 326 325 326 325 322 317 314 310 302 294 283 274 267 260 255 262 264 253 250 246 244 243 233 239 237 233 231 227
345 343 337 334 334 331 329 328 326 325 321 314 310 303 295 280 272 262 252 249 258 262 248 245 242 239 236 236 240 235 235 230
351 345 339 337 339 335 330 327 325 325 324 319 315 310 304 293 277 271 256 246 246 253 259 245 241 235 236 235 233 233 233 233
352 346 342 344 343 340 337 336 333 332 329 324 321 316 311 304 287 275 267 253 240 244 248 250 240 234 228 229 222 227 231 228
354 348 344 346 341 337 335 332 331 333 333 325 326 323 318 313 301 282 270 261 247 234 247 243 238 234 229 220 208 216 222 224
355 349 348 345 343 340 339 339 337 334 332 325 326 325 323 318 310 295 275 268 254 243 238 242 237 232 230 228 224 221 204 215
354 352 350 344 342 342 341 339 334 331 331 326 327 324 322 319 311 302 293 277 262 244 237 242 235 228 230 224 220 222 221 212
354 355 350 344 341 341 340 338 332 332 334 328 326 322 323 319 311 300 292 282 274 258 238 237 244 233 227 221 222 216 220 216
357 354 351 346 340 338 339 337 332 333 335 329 325 323 321 316 311 304 293 279 281 276 243 235 237 237 228 224 226 226 219 223
357 354 350 346 342 338 337 338 333 330 332 327 323 321 321 316 306 301 291 279 276 274 253 235 233 232 225 185 215 223 219 223